[[{"header":{"parameterUnit":"m.s-1","parameterCategory":1,"la1":30.2991,"la2":30.254,"lo1":-89.0895,"lo2":-89.0444,"dy":0.0017,"dx":0.0017,"nx":28,"ny":28,"refTime":"2024-03-17T03:00:00:Z","depth":0,"parameterNumber":2,"parameterNumberName":"U-component_of_WINDS"},"data":[0,0,0,0,0,0,0,0,0,0,0,0,0,0,0,0,0,0,0,0,0,0,0,0,0,0,0,0,0,0,0,0,0,0,0,0,0,0,0,0,0,0,0,0,0,0,0,0,0,0,0,0,0,0,0,0,0,0,0.1722,0.1722,0,0.1776,0.1777,0.1778,0.1795,0.1794,0.1794,0.1794,0.1851,0.1852,0.1854,0,0,0,0,0,0,0,0,0,0,0,0,0,0.1632,0.1633,0.1722,0.1722,0.1723,0.1776,0.1777,0.1778,0.1795,0.1794,0.1794,0.1794,0.185,0.1852,0.1854,0,0,0,0,0,0,0,0,0,0,0,0,0,0.1677,0.1634,0.1722,0.1738,0.174,0.1776,0.1777,0.1778,0.1795,0.1794,0.1794,0.1794,0.1849,0.1852,0.1855,0.1879,0,0,0.1863,0.1864,0,0,0,0,0,0,0,0,0.1674,0.168,0.1735,0.1737,0.1739,0.1778,0.1766,0.1812,0.1795,0.1774,0.1794,0.1793,0.1827,0.1831,0.1843,0.1882,0.1884,0.1863,0.1865,0.1866,0.1866,0,0,0,0,0,0,0,0.1671,0.1678,0.1743,0.1736,0.1738,0.1742,0.1748,0.1775,0.1802,0.1776,0.1777,0.1783,0.1828,0.184,0.1844,0.1885,0.1863,0.1865,0.1867,0.1868,0.1946,0.1946,0,0,0,0,0,0,0.1665,0.1675,0.1742,0.1745,0.1705,0.1744,0.1751,0.1766,0.1802,0.1807,0.1784,0.1784,0.1836,0.1841,0.1846,0.1877,0.1866,0.1868,0.187,0.1945,0.1946,0.1947,0,0,0,0,0,0,0.1663,0.1671,0.1739,0.1711,0.172,0.1746,0.1763,0.1767,0.1779,0.1808,0.1813,0.1791,0.1836,0.1842,0.187,0.1879,0.1869,0.1872,0.1945,0.1946,0.1946,0.1938,0,0,0,0,0,0,0.1661,0.167,0.168,0.1711,0.1721,0.1763,0.1764,0.1769,0.1784,0.1785,0.1816,0.1821,0.1836,0.1866,0.1873,0.1882,0.1874,0.1944,0.1945,0.1946,0.1937,0.1938,0.1939,0,0,0,0,0,0.1657,0.1675,0.168,0.1688,0.1734,0.1763,0.1769,0.1786,0.1784,0.1794,0.1812,0.182,0.1877,0.1869,0.1877,0.1887,0.1944,0.1945,0.1946,0.1937,0.1938,0.1939,0,0,0,0,0,0,0.1645,0.168,0.1685,0.1714,0.1735,0.1766,0.1779,0.1787,0.1809,0.1809,0.1829,0.1836,0.1863,0.1878,0.1869,0.1912,0.1911,0.1913,0.1901,0.1902,0.1903,0.1899,0.1876,0,0,0,0,0,0.1646,0.1667,0.1696,0.1719,0.1729,0.1752,0.1766,0.1777,0.18,0.1809,0.1829,0.1852,0.1874,0.1889,0.1912,0.194,0.1946,0.195,0.1951,0.1951,0.1953,0.1969,0.197,0.195,0.195,0.195,0,0,0.1647,0.1669,0.1681,0.1717,0.1735,0.1756,0.176,0.1782,0.1798,0.1813,0.184,0.1856,0.1882,0.191,0.1923,0.1923,0.196,0.1953,0.1953,0.1955,0.197,0.1972,0.1973,0.1951,0.1951,0.1951,0,0,0.1661,0.168,0.17,0.1718,0.1745,0.176,0.1765,0.1794,0.1805,0.1833,0.1844,0.1863,0.1902,0.192,0.1934,0.1954,0.1962,0.1961,0.1964,0.1979,0.198,0.1982,0.1989,0.1991,0.1963,0.1963,0.1963,0,0.166,0.1692,0.171,0.1732,0.1747,0.176,0.1781,0.1797,0.183,0.1841,0.184,0.1889,0.1908,0.194,0.1944,0.1955,0.1961,0.1958,0.1979,0.1981,0.1982,0.1989,0.1991,0.1963,0.1963,0.1963,0.1963,0,0.1689,0.1711,0.1725,0.1756,0.1772,0.1794,0.1814,0.1829,0.1838,0.1853,0.1881,0.1904,0.1931,0.194,0.1949,0.1973,0.1972,0.1975,0.1974,0.1984,0.199,0.1993,0.1962,0.1962,0.1962,0.1963,0,0,0.1697,0.1737,0.1742,0.1756,0.1786,0.1804,0.1825,0.1851,0.1863,0.1886,0.1904,0.1936,0.1939,0.1955,0.1967,0.198,0.1994,0.1982,0.1982,0.1983,0.202,0.2017,0.202,0.1999,0.1999,0.2,0.2018,0,0.1714,0.1753,0.1769,0.1801,0.1821,0.1834,0.1853,0.1874,0.1888,0.1908,0.1924,0.1946,0.1948,0.1958,0.1971,0.1989,0.2001,0.1988,0.2016,0.2017,0.2009,0.2024,0.2021,0.2037,0.2021,0.2021,0.2021,0,0.174,0.1762,0.1795,0.1822,0.1832,0.1848,0.1873,0.1892,0.1915,0.1925,0.1942,0.1953,0.1976,0.1974,0.2006,0.1996,0.2008,0.2019,0.202,0.2023,0.2019,0.2027,0.2043,0.2045,0.2026,0.2025,0.2025,0,0.1742,0.178,0.1804,0.1816,0.1849,0.186,0.1874,0.1897,0.1911,0.1933,0.1943,0.1967,0.1981,0.1999,0.2016,0.2013,0.2046,0.2045,0.2055,0.2055,0.2061,0.2061,0.2079,0.207,0.207,0.207,0.207,0,0.1759,0.1779,0.1805,0.1821,0.1843,0.1861,0.1883,0.1898,0.1918,0.1936,0.1949,0.1966,0.1988,0.2007,0.2021,0.2045,0.2051,0.2059,0.2063,0.2058,0.2057,0.2066,0.2066,0.207,0.207,0.207,0.207,0,0.1765,0.1784,0.1811,0.184,0.1847,0.1863,0.1887,0.1902,0.1917,0.194,0.1946,0.1969,0.1993,0.2012,0.2043,0.2052,0.2077,0.2081,0.2069,0.2071,0.2079,0.2078,0.2104,0.2108,0.2096,0.2096,0.2096,0,0.1775,0.1791,0.182,0.1833,0.1847,0.1868,0.1883,0.1901,0.1916,0.1943,0.1955,0.1979,0.2,0.2037,0.2057,0.2081,0.2085,0.2093,0.2089,0.2083,0.2085,0.2084,0.2085,0.2093,0.2093,0.2093,0.2093,0,0.179,0.1799,0.1819,0.1843,0.186,0.188,0.19,0.191,0.1932,0.1948,0.1972,0.1987,0.2019,0.2043,0.2068,0.2083,0.2092,0.2094,0.2097,0.2093,0.2085,0.2089,0.207,0.2093,0.2093,0.2093,0.2093,0.2093,0.1798,0.1813,0.1836,0.1858,0.1875,0.1893,0.1908,0.1925,0.1945,0.1972,0.1981,0.2006,0.2029,0.2064,0.2079,0.2098,0.2099,0.2104,0.2105,0.2106,0.2105,0.2082,0.2103,0.2103,0.2103,0.2103,0.2103,0,0.1814,0.1829,0.185,0.1877,0.1895,0.1901,0.1923,0.1937,0.1959,0.1979,0.1999,0.2026,0.2049,0.2071,0.2095,0.2106,0.2111,0.2112,0.2111,0.2115,0.2103,0.2098,0.2108,0.2108,0.2108,0.2108,0.2108,0.2108,0.1824,0.1848,0.1859,0.1891,0.1907,0.1931,0.1943,0.1959,0.1976,0.2006,0.2025,0.2038,0.2059,0.2085,0.2106,0.2112,0.212,0.212,0.2127,0.2116,0.2115,0.2115,0.211,0.2122,0.2122,0.2136,0.2137,0.2137]},{"header":{"parameterUnit":"m.s-1","parameterCategory":1,"la1":30.2991,"la2":30.254,"lo1":-89.0895,"lo2":-89.0444,"dy":0.0017,"dx":0.0017,"nx":28,"ny":28,"refTime":"2024-03-17T03:00:00:Z","depth":0,"parameterNumber":3,"parameterNumberName":"V-component_of_WINDS"},"data":[0,0,0,0,0,0,0,0,0,0,0,0,0,0,0,0,0,0,0,0,0,0,0,0,0,0,0,0,0,0,0,0,0,0,0,0,0,0,0,0,0,0,0,0,0,0,0,0,0,0,0,0,0,0,0,0,0,0,0.7478,0.7477,0,0.7414,0.7413,0.7412,0.7361,0.7361,0.736,0.736,0.7294,0.7292,0.7291,0,0,0,0,0,0,0,0,0,0,0,0,0,0.7555,0.7554,0.7478,0.7477,0.7476,0.7414,0.7413,0.7412,0.7361,0.7361,0.736,0.736,0.7294,0.7292,0.7291,0,0,0,0,0,0,0,0,0,0,0,0,0,0.7509,0.7554,0.7478,0.7443,0.744,0.7414,0.7413,0.7412,0.7362,0.7361,0.736,0.7359,0.7294,0.7293,0.7291,0.7294,0,0,0.7285,0.7284,0,0,0,0,0,0,0,0,0.7512,0.7507,0.7449,0.7446,0.7442,0.7395,0.7416,0.7372,0.7362,0.7391,0.736,0.7359,0.7328,0.7323,0.7313,0.7291,0.7288,0.7285,0.7283,0.7283,0.7282,0,0,0,0,0,0,0,0.7515,0.7509,0.7453,0.7449,0.7444,0.7431,0.7423,0.7407,0.7365,0.7389,0.7385,0.7378,0.7326,0.7315,0.7311,0.7287,0.7285,0.7283,0.7282,0.7281,0.7265,0.7266,0,0,0,0,0,0,0.7524,0.7512,0.7455,0.7451,0.7476,0.743,0.7422,0.7411,0.7365,0.7357,0.7379,0.7376,0.7318,0.7313,0.7308,0.7309,0.7283,0.7281,0.728,0.7264,0.7265,0.7266,0,0,0,0,0,0,0.7526,0.7519,0.7457,0.748,0.7471,0.743,0.7417,0.741,0.7399,0.7357,0.7349,0.7376,0.7318,0.7311,0.7298,0.7306,0.728,0.7278,0.7263,0.7264,0.7265,0.7312,0,0,0,0,0,0,0.7528,0.752,0.7521,0.7481,0.747,0.7448,0.7418,0.7409,0.7396,0.7391,0.7352,0.7345,0.7317,0.7301,0.7296,0.7303,0.7277,0.7262,0.7264,0.7265,0.7309,0.7314,0.7319,0,0,0,0,0,0.7531,0.7537,0.7522,0.7515,0.7471,0.7449,0.7443,0.7411,0.7397,0.7397,0.737,0.7346,0.7306,0.73,0.7294,0.7301,0.7262,0.7263,0.7265,0.7307,0.7313,0.7318,0,0,0,0,0,0,0.7579,0.7531,0.7514,0.7506,0.7482,0.744,0.744,0.7418,0.7397,0.7394,0.7354,0.7346,0.7337,0.7317,0.7312,0.7302,0.7281,0.7281,0.7315,0.732,0.7325,0.733,0.7275,0,0,0,0,0,0.7589,0.7576,0.7534,0.7531,0.752,0.7483,0.7472,0.7449,0.7422,0.7412,0.7384,0.7359,0.734,0.7329,0.731,0.7306,0.7297,0.7307,0.7312,0.7316,0.7317,0.7314,0.7318,0.7271,0.7271,0.7271,0,0,0.7609,0.7581,0.7575,0.754,0.7519,0.7506,0.7474,0.7462,0.7451,0.741,0.7396,0.7375,0.7344,0.7335,0.733,0.7319,0.7328,0.7318,0.7322,0.7321,0.7316,0.7321,0.7325,0.7272,0.7272,0.7272,0,0,0.7639,0.7616,0.7612,0.7591,0.7559,0.7534,0.7533,0.7495,0.7479,0.7465,0.7433,0.742,0.739,0.7369,0.7355,0.7377,0.7354,0.7372,0.7396,0.7393,0.7397,0.74,0.7408,0.7412,0.7373,0.7373,0.7373,0,0.7668,0.7647,0.7612,0.7602,0.7588,0.7549,0.7544,0.7526,0.7489,0.748,0.7468,0.7429,0.7405,0.7392,0.7397,0.7387,0.7384,0.7376,0.7399,0.7402,0.7404,0.7412,0.7415,0.7375,0.7375,0.7375,0.7374,0,0.7684,0.7671,0.7671,0.7637,0.7623,0.7615,0.7579,0.7568,0.7547,0.7523,0.7509,0.7479,0.7453,0.7448,0.7427,0.7432,0.7426,0.7407,0.7385,0.7412,0.7418,0.7421,0.7379,0.7378,0.7377,0.7376,0,0,0.7743,0.769,0.7691,0.7676,0.7637,0.7626,0.7616,0.7591,0.7583,0.7559,0.7551,0.7525,0.7508,0.7491,0.7467,0.7465,0.7485,0.7446,0.7445,0.7455,0.7489,0.7504,0.7507,0.7469,0.7469,0.7469,0.7491,0,0.7768,0.7749,0.7717,0.7709,0.7696,0.7659,0.765,0.7626,0.7604,0.7589,0.7563,0.7546,0.7524,0.7514,0.751,0.7483,0.7491,0.7481,0.746,0.746,0.747,0.7511,0.7526,0.7548,0.7494,0.7494,0.7494,0,0.7794,0.7772,0.7763,0.7726,0.7719,0.7712,0.7687,0.7673,0.7645,0.7628,0.761,0.7584,0.7572,0.7552,0.7534,0.7528,0.7518,0.7503,0.7503,0.7501,0.7479,0.751,0.7555,0.7558,0.7498,0.7497,0.7497,0,0.7839,0.7807,0.7797,0.7785,0.7741,0.7738,0.7719,0.769,0.7677,0.7655,0.7646,0.7623,0.761,0.7592,0.756,0.7548,0.7546,0.7524,0.7533,0.7534,0.7534,0.7535,0.7579,0.7527,0.7527,0.7527,0.7527,0,0.7869,0.7865,0.7817,0.7811,0.7805,0.7768,0.7763,0.7741,0.7716,0.7705,0.7671,0.7661,0.7619,0.7605,0.7579,0.7569,0.7563,0.755,0.7543,0.7553,0.7555,0.7546,0.7544,0.7528,0.7527,0.7527,0.7527,0,0.7919,0.7886,0.7873,0.7833,0.7823,0.782,0.7786,0.7778,0.7754,0.774,0.7735,0.7696,0.7677,0.7643,0.7614,0.7597,0.7592,0.7581,0.7602,0.7598,0.761,0.7609,0.765,0.7654,0.7599,0.76,0.76,0,0.7941,0.7937,0.7896,0.7887,0.787,0.7855,0.7841,0.7805,0.7793,0.776,0.7757,0.7735,0.7716,0.7687,0.7656,0.7634,0.7622,0.7638,0.7618,0.7629,0.7623,0.7624,0.7623,0.7643,0.7643,0.7644,0.7644,0,0.7984,0.7968,0.7951,0.7928,0.7913,0.7893,0.7871,0.7865,0.7823,0.7811,0.7791,0.7777,0.7747,0.7727,0.77,0.768,0.7656,0.7651,0.7652,0.7662,0.7675,0.7669,0.7615,0.765,0.765,0.7649,0.7649,0.7649,0.8021,0.8015,0.7986,0.7968,0.7948,0.7928,0.7919,0.7894,0.7877,0.785,0.783,0.7812,0.7783,0.7745,0.7727,0.7712,0.7701,0.7702,0.7702,0.7704,0.7708,0.7677,0.7707,0.7707,0.7707,0.7706,0.7706,0,0.8063,0.8042,0.8025,0.7996,0.7982,0.796,0.7934,0.7924,0.7908,0.7884,0.7866,0.7843,0.7823,0.779,0.7767,0.7762,0.775,0.7757,0.7757,0.7753,0.7719,0.7721,0.7767,0.7767,0.7767,0.7767,0.7767,0.7767,0.8083,0.8073,0.8054,0.8033,0.8012,0.7995,0.7982,0.7964,0.7944,0.7921,0.7904,0.7883,0.7855,0.7829,0.781,0.7801,0.7794,0.7805,0.7792,0.7761,0.7756,0.775,0.7752,0.7803,0.7804,0.7828,0.7828,0.7828]}]]